Location: French Creek State Gamelands
(40.1750°N, 75.7969°W)
Time: 02:32:00
(UTC-04:00)

ISS - All Passes

Search period start: 21 August 2017 00:00
Search period end: 31 August 2017 00:00
Orbit: 401 x 408 km, 51.6° (Epoch: 21 August)

Date Brightness Start Highest point End Pass type
(mag) Time Alt. Az. Time Alt. Az. Time Alt. Az.
21 Aug - 09:33:21 10° S 09:35:51 20° SE 09:38:21 10° E daylight
21 Aug - 11:08:59 10° WSW 11:12:08 43° NNW 11:15:17 10° NE daylight
21 Aug - 12:47:29 10° NW 12:49:16 14° NNW 12:51:02 10° NNE daylight
21 Aug - 14:25:25 10° NNW 14:26:51 12° N 14:28:17 10° NE daylight
21 Aug - 16:01:10 10° NW 16:04:08 30° NNE 16:07:04 10° E daylight
21 Aug - 17:37:38 10° WNW 17:40:36 32° SW 17:43:32 10° SSE daylight
22 Aug - 08:43:07 10° SE 08:43:46 10° SE 08:44:27 10° ESE daylight
22 Aug - 10:16:30 10° SW 10:19:47 80° NW 10:23:05 10° NE daylight
22 Aug - 11:54:25 10° WNW 11:56:41 17° NNW 11:58:58 10° NNE daylight
22 Aug - 13:33:06 10° NNW 13:34:13 11° N 13:35:20 10° NNE daylight
22 Aug - 15:09:05 10° NNW 15:11:40 21° NNE 15:14:13 10° ENE daylight
22 Aug - 16:45:09 10° WNW 16:48:24 65° SW 16:51:37 10° SE daylight
23 Aug - 09:24:20 10° SW 09:27:31 50° SE 09:30:44 10° ENE daylight
23 Aug - 11:01:27 10° W 11:04:10 23° NNW 11:06:54 10° NNE daylight
23 Aug - 12:40:21 10° NNW 12:41:33 12° N 12:42:45 10° NNE daylight
23 Aug - 14:17:01 10° NNW 14:19:07 16° NNE 14:21:12 10° NE daylight
23 Aug - 15:52:51 10° NW 15:56:06 63° NE 15:59:20 10° ESE daylight
23 Aug - 17:30:34 10° W 17:32:12 13° SW 17:33:50 10° SSW daylight
24 Aug - 08:32:33 10° SSW 08:35:19 25° SE 08:38:07 10° ENE daylight
24 Aug - 10:08:38 10° W 10:11:42 36° NNW 10:14:46 10° NE daylight
24 Aug - 11:47:18 10° NW 11:48:55 13° N 11:50:31 10° NNE daylight
24 Aug - 13:24:54 10° NNW 13:26:29 13° N 13:28:05 10° NE daylight
24 Aug - 15:00:38 10° NW 15:03:43 35° NNE 15:06:45 10° E daylight
24 Aug - 16:37:19 10° WNW 16:40:04 25° SW 16:42:49 10° SSE daylight
25 Aug - 07:41:32 10° SSE 07:43:12 13° SE 07:44:52 10° E daylight
25 Aug - 09:16:02 10° WSW 09:19:17 64° NW 09:22:34 10° NE daylight
25 Aug - 10:54:10 10° WNW 10:56:17 16° NNW 10:58:24 10° NNE daylight
25 Aug - 12:32:38 10° NNW 12:33:49 11° N 12:35:01 10° NNE daylight
25 Aug - 14:08:30 10° NNW 14:11:13 23° NNE 14:13:55 10° E daylight
25 Aug - 15:44:40 10° WNW 15:47:52 50° SW 15:51:02 10° SE daylight
26 Aug - 08:23:42 10° SW 08:26:58 65° SE 08:30:13 10° ENE daylight
26 Aug - 10:01:07 10° WNW 10:03:41 21° NNW 10:06:17 10° NNE daylight
26 Aug - 11:40:00 10° NNW 11:41:08 11° N 11:42:16 10° NNE daylight
26 Aug - 13:16:23 10° NNW 13:18:39 17° NNE 13:20:55 10° ENE daylight
26 Aug - 14:52:17 10° NW 14:55:33 80° NE 14:58:49 10° SE daylight
26 Aug - 16:30:57 10° WSW 16:31:33 10° SW 16:32:10 10° SW daylight
27 Aug - 07:31:44 10° SSW 07:34:42 32° SE 07:37:40 10° ENE daylight
27 Aug - 09:08:11 10° W 09:11:10 30° NNW 09:14:09 10° NE daylight
27 Aug - 10:46:59 10° NW 10:48:26 12° N 10:49:54 10° NNE daylight
27 Aug - 12:24:15 10° NNW 12:26:01 14° NNE 12:27:46 10° NE daylight
27 Aug - 14:00:01 10° NW 14:03:09 42° NNE 14:06:17 10° ESE daylight
27 Aug - 15:36:56 10° W 15:39:25 20° SW 15:41:54 10° S daylight
28 Aug - 06:40:19 10° S 06:42:30 17° SE 06:44:41 10° E daylight
28 Aug - 08:15:28 10° WSW 08:18:41 51° NNW 08:21:55 10° NE daylight
28 Aug - 09:53:49 10° NW 09:55:45 15° NNW 09:57:41 10° NNE daylight
28 Aug - 11:32:00 10° NNW 11:33:19 12° N 11:34:38 10° NNE daylight
28 Aug - 13:07:48 10° NW 13:10:40 27° NNE 13:13:30 10° E daylight
28 Aug - 14:44:07 10° WNW 14:47:12 39° SW 14:50:16 10° SSE daylight
29 Aug - 07:23:01 10° SW 07:26:17 83° SE 07:29:35 10° NE daylight
29 Aug - 09:00:41 10° WNW 09:03:07 19° NNW 09:05:33 10° NNE daylight
29 Aug - 10:39:29 10° NNW 10:40:35 11° N 10:41:42 10° NNE daylight
29 Aug - 12:15:39 10° NNW 12:18:05 19° NNE 12:20:30 10° ENE daylight
29 Aug - 13:51:36 10° NW 13:54:53 82° SW 13:58:09 10° SE daylight
30 Aug - 06:30:51 10° SSW 06:33:58 40° SE 06:37:05 10° ENE daylight
30 Aug - 08:07:40 10° W 08:10:30 26° NNW 08:13:22 10° NE daylight
30 Aug - 09:46:32 10° NNW 09:47:51 12° N 09:49:11 10° NNE daylight
30 Aug - 11:23:28 10° NNW 11:25:25 15° NNE 11:27:21 10° NE daylight
30 Aug - 12:59:15 10° NW 13:02:28 52° NNE 13:05:40 10° ESE daylight
30 Aug - 14:36:31 10° W 14:38:39 16° SW 14:40:47 10° S daylight
